Location: Brodeslavy
(49.9527°N, 13.5567°E)
Time: 20:39:35
(UTC+00:00)

Cosmos 2034 Rocket - Pass Details

Date: 17 June 2025
Orbit: 958 x 999 km, 82.9° (Epoch: 16 July)

Event Time Altitude Azimuth Distance (km) Brightness Sun altitude
Rises 22:59:15 0° 346° (NNW) 3,672 8.6 -16.6°
Reaches altitude 10° 23:01:49 10° 342° (NNW) 2,726 7.5 -16.6°
Maximum altitude 23:07:47 50° 269° (W) 1,231 4.5 -16.6°
Enters shadow 23:11:36 22° 205° (SSW) 1,982 5.1 -16.6°
